Regional Weather Roundup
Issued by NWS Little Rock, AR

Home | Current Version | Previous Version | Graphics & Text | Print | Product List | Glossary On
Versions: 1 2 3 4 5 6 7 8 9 10 11 12 13 14 15 16 17 18 19 20 21 22 23 24 25 26 27 28 29 30 31 32 33 34 35 36 37 38 39 40 41 42 43 44 45 46 47 48 49
000
ASUS44 KLZK 231605
RWRLZK

WEATHER ROUNDUP FOR ARKANSAS
NATIONAL WEATHER SERVICE LITTLE ROCK AR
1100 AM CDT WED JUL 23 2014

NOTE: "FAIR" INDICATES FEW OR NO CLOUDS BELOW 12,000 FEET WITH NO
SIGNIFICANT WEATHER AND/OR OBSTRUCTIONS TO VISIBILITY.

ARZ001-003-010-029-231700-
NORTHWEST ARKANSAS

CITY           SKY/WX    TMP DP  RH WIND       PRES   REMARKS
FAYETTEVILLE   SUNNY     86  76  71 W6        30.11F HX  96
FORT SMITH     SUNNY     88  76  67 W9        30.07F HX  99
HARRISON       SUNNY     89  76  65 VRB7      30.09F HX 100
BENTONVILLE    SUNNY     88  75  66 W7        30.12F HX  97
ROGERS         SUNNY     87  75  67 W7        30.11F HX  96
SILOAM SPGS    SUNNY     88  73  62 W10       30.11F HX  96
HIGHFILL       SUNNY     89  77  67 W8        30.10F HX 101
SPRINGDALE     SUNNY     86  75  70 W10       30.13F HX  95
$$

ARZ004-005-016-231700-
NORTH CENTRAL ARKANSAS

CITY           SKY/WX    TMP DP  RH WIND       PRES   REMARKS
BATESVILLE     PTSUNNY   84  75  74 E5        30.04F HX  92
FLIPPIN        MOSUNNY   88  73  62 W7        30.06F HX  96
MTN HOME       PTSUNNY   85  76  74 VRB3      30.05F HX  94
$$

ARZ040-041-231700-
WEST CENTRAL ARKANSAS

CITY           SKY/WX    TMP DP  RH WIND       PRES   REMARKS
MENA           SUNNY     88  77  70 CALM      30.11F HX 100
MOUNT IDA      PTSUNNY   83  74  74 CALM      30.07F HX  89
$$

ARZ009-017-025-026-028-231700-
NORTHEAST ARKANSAS

CITY           SKY/WX    TMP DP  RH WIND       PRES   REMARKS
CORNING        FAIR      86  73  66 S9        30.04F HX  93
JONESBORO      PTSUNNY   84  70  62 SW7       30.05S HX  88
NEWPORT        SUNNY     88  73  60 SW9       30.05F HX  95
WALNUT RIDGE   MOSUNNY   84  61  45 S12       30.03F
BLYTHEVILLE    MOSUNNY   86  73  65 S10       30.05F HX  93
NW BLYTHEVILLE MOSUNNY   86  72  62 SW12      30.05F HX  92
$$

ARZ022-023-033-042-044-231700-
CENTRAL ARKANSAS

CITY           SKY/WX    TMP DP  RH WIND       PRES   REMARKS
LITTLE ROCK    PTSUNNY   86  71  60 SW9       30.07S HX  91
N LITTLE ROCK  PTSUNNY   84  75  75 W2        30.07S HX  91
JACKSONVILLE   PTSUNNY   84  73  69 W5        30.07R HX  90
SEARCY         PTSUNNY   85  74  69 W5        30.07R HX  92
HOT SPRINGS    MOSUNNY   82  72  71 NW3       30.09F HX  87
RUSSELLVILLE   MOSUNNY   84  75  74 VRB3      30.07S HX  92
CLINTON        FAIR      82  73  74 CALM      30.07R HX  88
$$

ARZ036-231700-
EAST ARKANSAS

CITY           SKY/WX    TMP DP  RH WIND       PRES   REMARKS
WEST MEMPHIS   MOSUNNY   85  74  69 VRB3      30.06S HX  92
$$

ARZ050-053-066-070-073-231700-
SOUTHWEST ARKANSAS

CITY           SKY/WX    TMP DP  RH WIND       PRES   REMARKS
ARKADELPHIA    FAIR      87  73  62 CALM      30.08F HX  94
CAMDEN         SUNNY     86  70  58 SW3       30.08F HX  90
TEXARKANA      PTSUNNY   85  70  60 SW3       30.09F HX  89
EL DORADO      SUNNY     84  70  62 NW3       30.09F HX  88
DE QUEEN       MOSUNNY   83  73  72 SW7       30.07F HX  89
$$

ARZ056-057-069-231700-
SOUTHEAST ARKANSAS

CITY           SKY/WX    TMP DP  RH WIND       PRES   REMARKS
PINE BLUFF     SUNNY     85  70  60 W5        30.07F HX  89
STUTTGART      SUNNY     86  73  66 W5        30.07F HX  93
MONTICELLO     SUNNY     85  69  58 VRB3      30.07F HX  89

$$




USA.gov is the U.S. government's official web portal to all federal, state and local government web resources and services.